Starlink 5243

operational
NORAD ID: 54167 Int'l Des: 2022-141 Owner: SPXS Country: US Constellation: starlink
LEOCIRCULAR

About Starlink 5243

Description loading...

Live Position

Loading 3D Globe...

Upcoming Passes

Altitude History

Altitude vs Time

uPlot chart will show altitude changes over time

Two-Line Element Set

1 54167U 22141L 25350.51390269 .00001327 00000-0 10142-3 0 9997
2 54167 53.2185 27.2910 0001298 94.6401 265.4740 15.08846538173168
Epoch: Dec 16, 2025 • Age: 16 hours

Current Status

Altitude 541.5 km
Velocity 7.60 km/s
Sub-Earth Point 34.28°N, 15.24°E
Launch Date Oct 28, 2022
Age 3.1 years
Type internet

Technical Details

Classification Payload
Mass 305.00 kg
Dry Mass 290.00 kg
Total Mass 305.00 kg
Length 0.20 m
Diameter 2.80 m
Span 9.00 m
Shape Box + pan
Manufacturer SPXS
Bus Type Starlink
Phase Status In Orbit
Owner/State SPXS/US

Large Constellations

Loading constellations...